Regional Weather Roundup
Issued by NWS

Home | Current Version | Previous Version | Text Only | Print | Product List | Glossary On
Versions: 1 2 3 4 5 6 7 8 9 10 11 12 13 14 15 16 17 18 19 20 21 22 23 24 25 26 27 28 29 30 31 32 33 34 35 36 37 38 39 40 41 42 43 44 45 46 47 48 49 50
000
ASUS46 KSTO 261515
RWRCA

NORTHERN AND CENTRAL CA REGIONAL WEATHER ROUNDUP
NATIONAL WEATHER SERVICE SACRAMENTO CA
800 AM PDT WED JUL 26 2017

NOTE: FAIR INDICATES FEW OR NO CLOUDS BELOW 12,000 FEET WITH NO
SIGNIFICANT WEATHER AND/OR OBSTRUCTIONS TO VISIBILITY.

CAZ001-003-261600-
NORTHWEST AREA

CITY           SKY/WX    TMP DP  RH WIND       PRES   REMARKS
CRESCENT CITY  CLOUDY    52  52 100 S8        30.05S FOG
UKIAH          SUNNY     61  53  75 S3        30.04R
$$

CAZ006-505>513-261600-
BAY AREA

CITY           SKY/WX    TMP DP  RH WIND       PRES   REMARKS
SANTA ROSA     CLOUDY    57  54  89 CALM      30.04R
SAN RAFAEL     N/A       57  MM  MM MISG
NAPA           PTSUNNY   62  55  77 W8        30.05R
CONCORD        PTSUNNY   61  56  83 W10       30.04R
OAKLAND CITY   N/A      MM  MM  MM MISG
OAKLAND        DRIZZLE   59  58  96 NW8       30.05R
SAN FRAN CITY  N/A       58  MM  94 MISG
SAN FRAN ARPT  CLOUDY    60  55  83 NW9       30.04R
LIVERMORE      CLOUDY    60  55  83 W7        30.04R
HAYWARD        CLOUDY    62  54  74 NW7       30.05R
REDWOOD CITY   N/A       63  MM  81 MISG
MOFFETT ARPT   CLOUDY    64  58  80 N7        30.05R
SAN JOSE ARPT  CLOUDY    64  57  78 CALM      30.04R
$$
CAZ034-037-514>518-261600-
CENTRAL COAST

CITY           SKY/WX    TMP DP  RH WIND       PRES   REMARKS
WATSONVILLE    CLOUDY    58  57  97 W3        30.06R
SALINAS        CLOUDY    61  55  81 CALM      30.05R
MONTEREY       CLOUDY    59  55  87 CALM      30.06R
SAN LUIS OBISP MOSUNNY   60  56  86 NW6       30.03S
SANTA MARIA    PTSUNNY   60  57  89 CALM      30.04S
$$
CAZ015-016-261600-
NORTHERN SACRAMENTO VALLEY

CITY           SKY/WX    TMP DP  RH WIND       PRES   REMARKS
REDDING        SUNNY     74  54  49 CALM      29.99R
RED BLUFF      SUNNY     76  54  46 CALM      30.00R
OROVILLE       SUNNY     71  57  61 S3        30.00R
$$
CAZ016>018-261600-
SOUTHERN SACRAMENTO VALLEY

CITY           SKY/WX    TMP DP  RH WIND       PRES   REMARKS
AUBURN         SUNNY     77  52  41 E3        30.04R
BEALE AFB      SUNNY     68  55  64 S6        29.98R
LINCOLN        FAIR      68  52  56 S7        29.99R
MARYSVILLE     SUNNY     67  56  67 SE6       30.00R
SAC INTL ARPT  SUNNY     64  55  72 SE6       29.99R
MATHER AIRPORT SUNNY     63  55  77 S6        30.00R
DOWNTOWN SAC   N/A       65  MM  MM MISG
SAC EXEC ARPT  SUNNY     63  55  75 S8        30.00R
VACAVILLE      SUNNY     67  53  61 SW8       30.00R
TRAVIS AFB     SUNNY     62  54  75 SW22      29.97S
$$
CAZ019>021-261600-
SAN JOAQUIN VALLEY

CITY           SKY/WX    TMP DP  RH WIND       PRES   REMARKS
STOCKTON       SUNNY     68  58  70 NW8       30.00R
MODESTO        SUNNY     67  57  70 N7        29.99R
MERCED         MOSUNNY   69  54  58 N8        29.98R
LEMOORE        MOSUNNY   73  56  54 NW8       29.99R
FRESNO         MOSUNNY   74  56  53 NW6       29.99R
HANFORD        SUNNY     74  58  57 NW6       29.99R
PORTERVILLE      N/A     75  53  46 S3        29.99S
BAKERSFIELD    SUNNY     81  53  37 NW5       29.98S
$$
CAZ011-012-071-261600-
NORTHERN MOUNTAINS

CITY           SKY/WX    TMP DP  RH WIND       PRES   REMARKS
YREKA          PTSUNNY   64  53  67 CALM      30.12R
MOUNT SHASTA   MOSUNNY   65  52  62 CALM      30.15R
ALTURAS        SUNNY     57  55  93 CALM      30.22S
$$
CAZ011-012-071-261600-
SIERRA NEVADA MTNS

CITY           SKY/WX    TMP DP  RH WIND       PRES   REMARKS
TRUCKEE        SUNNY     54  45  71 CALM      30.31R
TAHOE VLY ARPT SUNNY     56  46  69 CALM      30.30R
MAMMOTH LAKES  FAIR      60  45  58 CALM      30.38R
$$



USA.gov is the U.S. government's official web portal to all federal, state and local government web resources and services.